Home   Weather   Barranquilla   Past weeks

Flag for Colombia Past Weather in Barranquilla, Colombia — Yesterday and Last 2 Weeks

Now
82 °F

Passing clouds.


Feels Like: 91 °F
Forecast: 79 / 87 °F
Wind: 21 mph from North

Location: Barranquilla / Ernestocortissoz

Current Time: Sep 30, 2016 at 1:48:38 AM

Latest Report: Sep 30, 2016 at 1:00 AM


Visibility: N/A

Pressure: 29.81 "Hg

Humidity: 84%

Dew Point: 77 °F

Location of BarranquillaLocation

Past Weather in Barranquilla — Graph

°F

Barranquilla Temperature Yesterday

Maximum temperature yesterday: 95 °F (at 1:00 PM)
Minimum temperature yesterday: 79 °F (at 5:00 AM)
Average temperature yesterday: 85 °F

High & Low Weather Summary for the Past Weeks

 TemperatureHumidityPressure
High95 °F (Sep 24, 1:00 PM)100% (Sep 15, 2:00 AM)29.94 "Hg (Sep 15, 2:00 AM)
Low73 °F (Sep 15, 4:00 PM)53% (Sep 29, 1:00 PM)29.72 "Hg (Sep 26, 3:00 PM)
Average83 °F85%29.83 "Hg
* Reported Sep 15 12:00 AM — Sep 30 12:00 AM, Barranquilla, Weather by CustomWeather, © 2016

Note: Actual official high and low records may vary slightly from our data, if they occured in-between our weather recording intervals... More about our weather records

Advertising

Barranquilla Weather History for the Previous 24 Hours

Scroll right to see more
 ConditionsComfort  
Time TempWeatherWind HumidityBarometerVisibility
12:00 AM
Fri, Sep 30
82 °FPassing clouds.16 mph84%29.85 "HgN/A
11:00 PM
Thu, Sep 29
82 °FPassing clouds.14 mph89%29.87 "HgN/A
10:00 PM82 °FPartly cloudy.14 mph89%29.89 "HgN/A
9:00 PM82 °FPassing clouds.16 mph89%29.88 "HgN/A
8:00 PM82 °FPassing clouds.14 mph89%29.84 "HgN/A
7:00 PM84 °FPartly cloudy.17 mph84%29.81 "HgN/A
6:00 PM84 °FPassing clouds.10 mph79%29.81 "HgN/A
5:00 PM86 °FScattered clouds.10 mph70%29.80 "HgN/A
4:00 PM88 °FScattered clouds.13 mph70%29.80 "HgN/A
3:00 PM90 °FScattered clouds.15 mph67%29.79 "HgN/A
2:00 PM90 °FScattered clouds.12 mph67%29.81 "HgN/A
1:00 PM95 °FScattered clouds.6 mph53%29.83 "HgN/A
12:00 PM91 °FPartly sunny.3 mph56%29.84 "HgN/A
11:00 AM90 °FPartly sunny.5 mph63%29.87 "HgN/A
10:00 AM88 °FPartly sunny.10 mph70%29.90 "HgN/A
9:00 AM86 °FPartly sunny.14 mph75%29.90 "HgN/A
8:00 AM86 °FPartly sunny.9 mph75%29.87 "HgN/A
7:00 AM82 °FPartly sunny.5 mphN/A29.83 "HgN/A
6:00 AM79 °FWarm.2 mph100%29.83 "HgN/A
5:00 AM79 °FFog.2 mph100%29.83 "Hg3 mi
4:00 AM81 °FClear.6 mph94%29.81 "Hg10 mi
3:00 AM82 °FClear.7 mph89%29.82 "Hg10 mi
2:00 AM82 °FPassing clouds.12 mph89%29.84 "HgN/A
1:00 AM82 °FPassing clouds.14 mph89%29.84 "HgN/A
Weather by CustomWeather, © 2016

See weather overviewHow to use our weather pages